Location: Unspecified
(0.0000°N, 0.0000°E)
Time: 11:32:26
(UTC+00:00)

LightSail 2 - Pass Details

Date: 25 November 2019
Orbit: 696 x 730 km, 24.0° (Epoch: 07 December)

Event Time Altitude Azimuth Distance (km) Brightness Sun altitude
Rises 18:08:02 0° 262° (W) 3,082 10.5 -4.9°
Reaches altitude 10° 18:10:40 10° 271° (W) 2,157 9.0 -5.5°
Maximum altitude 18:15:15 34° 335° (NNW) 1,135 6.3 -6.6°
Drops below altitude 10° 18:19:49 10° 40° (NE) 2,138 7.1 -7.7°
Enters shadow 18:20:36 - 44° (NE) 2,407 7.3 -7.9°
